TimeEDT,TemperatureF,Dew PointF,Humidity,Sea Level PressureIn,VisibilityMPH,Wind Direction,Wind SpeedMPH,Gust SpeedMPH,PrecipitationIn,Events,Conditions,WindDirDegrees,DateUTC
12:51 AM,26.1,16.0,66,30.18,10.0,East,8.1,-,N/A,,Mostly Cloudy,80,2013-03-18 04:51:00
1:51 AM,26.1,17.1,69,30.16,10.0,East,9.2,-,N/A,,Mostly Cloudy,90,2013-03-18 05:51:00
2:51 AM,26.1,18.0,71,30.15,10.0,East,9.2,-,N/A,,Mostly Cloudy,90,2013-03-18 06:51:00
3:51 AM,28.0,18.0,66,30.13,10.0,ESE,13.8,-,N/A,,Overcast,110,2013-03-18 07:51:00
4:51 AM,28.9,19.9,69,30.08,10.0,ESE,16.1,-,N/A,,Overcast,110,2013-03-18 08:51:00
5:51 AM,30.0,19.9,66,30.05,10.0,ESE,13.8,24.2,N/A,,Overcast,110,2013-03-18 09:51:00
6:43 AM,30.2,21.2,69,29.99,10.0,ESE,16.1,25.3,N/A,,Overcast,110,2013-03-18 10:43:00
6:51 AM,30.9,21.0,67,30.03,10.0,East,13.8,-,N/A,,Overcast,100,2013-03-18 10:51:00
7:37 AM,30.2,21.2,69,29.96,10.0,ESE,19.6,26.5,0.00,,Overcast,120,2013-03-18 11:37:00
7:40 AM,30.2,21.2,69,29.96,10.0,ESE,18.4,25.3,0.00,,Light Freezing Drizzle,120,2013-03-18 11:40:00
7:51 AM,32.0,23.0,69,30.00,10.0,SE,17.3,26.5,N/A,Rain,Light Freezing Rain,130,2013-03-18 11:51:00
8:51 AM,32.0,27.0,82,29.97,4.0,ESE,16.1,27.6,0.06,Rain-Snow,Light Freezing Rain,120,2013-03-18 12:51:00
9:07 AM,30.2,28.4,93,29.91,1.0,ESE,15.0,29.9,0.01,Snow,Light Snow,120,2013-03-18 13:07:00
9:26 AM,30.2,28.4,93,29.90,1.5,ESE,20.7,26.5,0.03,Rain-Snow,Light Freezing Rain,110,2013-03-18 13:26:00
9:43 AM,32.0,28.4,87,29.90,2.0,ESE,19.6,31.1,0.05,Rain,Light Freezing Rain,120,2013-03-18 13:43:00
9:51 AM,32.0,28.9,88,29.94,2.0,ESE,17.3,27.6,0.05,Rain,Light Freezing Rain,120,2013-03-18 13:51:00
10:23 AM,32.0,28.4,87,29.88,1.0,ESE,23.0,34.5,0.05,Rain,Light Freezing Rain,120,2013-03-18 14:23:00
10:42 AM,32.0,28.4,87,29.87,1.5,ESE,21.9,29.9,0.07,Rain,Light Freezing Rain,120,2013-03-18 14:42:00
10:51 AM,32.0,28.9,88,29.90,1.5,ESE,23.0,36.8,0.09,Rain,Light Freezing Rain,120,2013-03-18 14:51:00
11:21 AM,32.0,28.4,87,29.82,2.0,ESE,24.2,38.0,0.05,Rain,Light Freezing Rain,120,2013-03-18 15:21:00
11:51 AM,32.0,28.9,88,29.86,2.0,ESE,24.2,34.5,0.08,Rain,Light Freezing Rain,120,2013-03-18 15:51:00
12:09 PM,32.0,28.4,87,29.85,3.0,ESE,18.4,23.0,0.00,Rain,Light Freezing Rain,120,2013-03-18 16:09:00
12:32 PM,32.0,28.4,87,29.84,1.0,ESE,16.1,23.0,0.01,Rain,Light Freezing Rain,120,2013-03-18 16:32:00
12:51 PM,32.0,28.9,88,29.87,2.0,SE,15.0,23.0,0.02,Rain-Snow,Light Freezing Rain,130,2013-03-18 16:51:00
1:04 PM,32.0,30.2,93,29.82,1.5,SE,20.7,26.5,0.01,Rain-Snow,Light Freezing Rain,130,2013-03-18 17:04:00
1:51 PM,32.0,30.0,92,29.83,1.5,SE,18.4,27.6,0.01,Rain,Light Freezing Rain,130,2013-03-18 17:51:00
2:24 PM,33.8,30.2,87,29.77,1.5,SE,18.4,28.8,0.00,,Light Freezing Drizzle,130,2013-03-18 18:24:00
2:42 PM,33.8,30.2,87,29.76,1.5,SE,17.3,26.5,0.00,,Light Drizzle,130,2013-03-18 18:42:00
2:51 PM,33.1,30.9,92,29.79,1.5,ESE,19.6,26.5,0.00,,Light Drizzle,120,2013-03-18 18:51:00
3:51 PM,33.1,32.0,96,29.75,1.0,ESE,19.6,26.5,0.00,,Light Drizzle,120,2013-03-18 19:51:00
4:36 PM,33.8,32.0,93,29.68,2.0,ESE,18.4,27.6,0.01,,Light Drizzle,120,2013-03-18 20:36:00
4:51 PM,33.1,32.0,96,29.71,2.0,SE,18.4,25.3,0.01,,Light Drizzle,130,2013-03-18 20:51:00
5:44 PM,33.8,32.0,93,29.66,1.5,SE,17.3,-,0.03,Rain,Rain,130,2013-03-18 21:44:00
5:51 PM,34.0,32.0,92,29.68,1.5,SE,19.6,28.8,0.04,Rain,Light Rain,130,2013-03-18 21:51:00
6:51 PM,35.1,33.1,92,29.68,1.8,SE,15.0,23.0,0.04,Rain,Light Rain,140,2013-03-18 22:51:00
7:02 PM,35.6,33.8,93,29.64,3.0,SE,15.0,23.0,0.00,Rain,Light Rain,130,2013-03-18 23:02:00
7:51 PM,35.1,33.1,92,29.67,5.0,SE,16.1,24.2,0.00,,Overcast,130,2013-03-18 23:51:00
8:51 PM,35.1,34.0,96,29.68,7.0,SE,13.8,-,0.00,,Overcast,140,2013-03-19 00:51:00
9:19 PM,35.6,33.8,93,29.64,7.0,SE,13.8,21.9,0.00,Rain,Light Rain,140,2013-03-19 01:19:00
9:51 PM,36.0,34.0,93,29.67,5.0,SE,11.5,24.2,0.00,Rain,Light Rain,140,2013-03-19 01:51:00
10:36 PM,35.6,33.8,93,29.63,3.0,SE,11.5,-,0.00,Rain,Light Rain,140,2013-03-19 02:36:00
10:51 PM,36.0,34.0,93,29.66,3.0,SSE,11.5,-,0.01,Rain,Light Rain,150,2013-03-19 02:51:00
11:18 PM,35.6,35.6,100,29.64,2.5,SSE,12.7,-,0.01,Rain,Light Rain,150,2013-03-19 03:18:00
11:38 PM,35.6,35.6,100,29.64,3.0,SSE,10.4,-,0.02,Rain,Light Rain,150,2013-03-19 03:38:00
11:51 PM,36.0,36.0,100,29.68,3.0,South,9.2,-,0.03,Rain,Light Rain,170,2013-03-19 03:51:00